TimeEST,TemperatureF,Dew PointF,Humidity,Sea Level PressureIn,VisibilityMPH,Wind Direction,Wind SpeedMPH,Gust SpeedMPH,PrecipitationIn,Events,Conditions,WindDirDegrees,DateUTC
12:56 AM,39.0,36.0,89,29.94,8.0,NW,4.6,-,N/A,,Overcast,310,2013-02-16 05:56:00
1:56 AM,39.9,34.0,79,29.94,10.0,NNW,5.8,-,N/A,,Overcast,330,2013-02-16 06:56:00
2:56 AM,39.0,30.0,70,29.93,10.0,NNW,8.1,-,N/A,,Overcast,330,2013-02-16 07:56:00
3:56 AM,37.9,30.9,76,29.93,10.0,NNW,11.5,-,N/A,,Overcast,340,2013-02-16 08:56:00
4:56 AM,36.0,30.0,79,29.92,10.0,North,8.1,18.4,0.00,,Overcast,360,2013-02-16 09:56:00
5:29 AM,35.6,30.2,81,29.92,10.0,North,11.5,-,N/A,,Overcast,360,2013-02-16 10:29:00
6:48 AM,33.8,30.2,87,29.94,8.0,North,10.4,-,0.00,Snow,Light Snow,350,2013-02-16 11:48:00
6:56 AM,34.0,30.9,89,29.94,9.0,North,11.5,-,0.00,Snow,Light Snow,360,2013-02-16 11:56:00
7:39 AM,35.6,30.2,81,29.94,10.0,North,15.0,21.9,N/A,,Overcast,350,2013-02-16 12:39:00
7:56 AM,35.1,30.0,82,29.95,10.0,North,9.2,-,N/A,,Overcast,360,2013-02-16 12:56:00
8:10 AM,35.6,30.2,81,29.94,10.0,North,13.8,20.7,N/A,,Overcast,360,2013-02-16 13:10:00
8:18 AM,35.6,30.2,81,29.93,10.0,North,9.2,-,N/A,,Overcast,360,2013-02-16 13:18:00
8:43 AM,35.6,30.2,81,29.92,10.0,North,13.8,-,N/A,,Overcast,360,2013-02-16 13:43:00
8:56 AM,36.0,30.0,79,29.93,10.0,North,9.2,18.4,N/A,,Overcast,350,2013-02-16 13:56:00
9:29 AM,35.6,26.6,70,29.92,10.0,North,16.1,21.9,N/A,,Overcast,360,2013-02-16 14:29:00
9:56 AM,35.1,27.0,72,29.93,10.0,North,12.7,21.9,N/A,,Overcast,360,2013-02-16 14:56:00
10:56 AM,35.1,26.1,70,29.92,10.0,NNE,10.4,17.3,N/A,,Overcast,20,2013-02-16 15:56:00
11:56 AM,35.1,27.0,72,29.91,10.0,North,10.4,-,N/A,,Overcast,360,2013-02-16 16:56:00
12:56 PM,34.0,27.0,75,29.90,3.0,North,11.5,-,0.00,Snow,Light Snow,350,2013-02-16 17:56:00
1:04 PM,33.8,26.6,75,29.89,2.0,North,8.1,-,0.00,Snow,Light Snow,350,2013-02-16 18:04:00
1:15 PM,33.8,26.6,75,29.89,1.8,North,10.4,-,0.00,Snow,Light Snow,360,2013-02-16 18:15:00
1:48 PM,33.8,28.4,81,29.88,2.5,North,5.8,-,0.00,Snow,Light Snow,360,2013-02-16 18:48:00
1:56 PM,34.0,28.9,82,29.87,4.0,North,4.6,-,0.00,Snow,Light Snow,350,2013-02-16 18:56:00
2:15 PM,35.6,26.6,70,29.86,9.0,North,13.8,-,0.00,,Overcast,350,2013-02-16 19:15:00
2:56 PM,36.0,26.1,67,29.85,10.0,North,10.4,-,0.00,,Overcast,360,2013-02-16 19:56:00
3:56 PM,36.0,23.0,59,29.83,10.0,North,5.8,-,N/A,,Overcast,350,2013-02-16 20:56:00
4:56 PM,36.0,23.0,59,29.82,10.0,North,6.9,-,N/A,,Overcast,360,2013-02-16 21:56:00
5:56 PM,36.0,21.9,57,29.82,10.0,North,6.9,-,N/A,,Overcast,360,2013-02-16 22:56:00
6:56 PM,36.0,21.9,57,29.82,10.0,North,5.8,-,N/A,,Overcast,350,2013-02-16 23:56:00
7:56 PM,35.1,19.9,54,29.81,10.0,NNW,11.5,-,N/A,,Overcast,340,2013-02-17 00:56:00
8:56 PM,33.1,21.9,64,29.79,9.0,North,15.0,20.7,0.00,Snow,Light Snow,350,2013-02-17 01:56:00
9:56 PM,30.9,24.1,76,29.77,5.0,NNW,11.5,-,0.00,Snow,Light Snow,340,2013-02-17 02:56:00
10:56 PM,30.9,24.1,76,29.72,6.0,North,15.0,21.9,0.00,Snow,Light Snow,350,2013-02-17 03:56:00
11:35 PM,30.2,23.0,75,29.69,4.0,North,13.8,-,0.00,Snow,Light Snow,350,2013-02-17 04:35:00
11:56 PM,30.0,23.0,75,29.70,4.0,North,12.7,20.7,0.00,Snow,Light Snow,350,2013-02-17 04:56:00